TimeCDT,TemperatureF,Dew PointF,Humidity,Sea Level PressureIn,VisibilityMPH,Wind Direction,Wind SpeedMPH,Gust SpeedMPH,PrecipitationIn,Events,Conditions,WindDirDegrees,DateUTC
12:53 AM,79.0,69.1,72,29.92,10.0,SE,6.9,-,N/A,,Clear,140,2012-10-14 05:53:00
1:53 AM,78.1,70.0,76,29.92,10.0,SE,6.9,-,N/A,,Partly Cloudy,140,2012-10-14 06:53:00
2:53 AM,77.0,71.1,82,29.90,10.0,SE,6.9,-,N/A,,Clear,140,2012-10-14 07:53:00
3:53 AM,75.9,71.1,85,29.90,10.0,SE,6.9,-,N/A,,Partly Cloudy,130,2012-10-14 08:53:00
4:53 AM,75.9,71.1,85,29.88,10.0,SSE,8.1,-,N/A,,Clear,150,2012-10-14 09:53:00
5:53 AM,73.9,70.0,87,29.91,10.0,East,3.5,-,N/A,,Clear,100,2012-10-14 10:53:00
6:53 AM,73.0,70.0,90,29.94,10.0,ENE,5.8,-,N/A,,Clear,60,2012-10-14 11:53:00
7:35 AM,73.4,69.8,88,29.99,10.0,NE,5.8,-,N/A,,Mostly Cloudy,50,2012-10-14 12:35:00
7:53 AM,73.9,71.1,91,29.98,9.0,NE,4.6,-,N/A,,Overcast,40,2012-10-14 12:53:00
8:53 AM,75.9,71.1,85,30.00,10.0,ENE,8.1,-,N/A,,Overcast,70,2012-10-14 13:53:00
9:18 AM,77.0,71.6,83,30.03,10.0,East,8.1,-,N/A,,Scattered Clouds,90,2012-10-14 14:18:00
9:53 AM,80.1,72.0,76,30.02,10.0,NE,3.5,-,N/A,,Scattered Clouds,50,2012-10-14 14:53:00
10:05 AM,78.8,71.6,78,30.05,10.0,ENE,5.8,-,N/A,,Mostly Cloudy,70,2012-10-14 15:05:00
10:53 AM,79.0,72.0,79,30.03,10.0,NE,8.1,-,N/A,,Overcast,50,2012-10-14 15:53:00
11:03 AM,78.8,71.6,78,30.06,10.0,NE,8.1,-,N/A,,Overcast,40,2012-10-14 16:03:00
11:53 AM,79.0,72.0,79,30.03,10.0,East,5.8,-,N/A,,Overcast,80,2012-10-14 16:53:00
12:23 PM,80.6,71.6,74,30.06,10.0,East,5.8,-,N/A,,Overcast,100,2012-10-14 17:23:00
12:53 PM,81.0,72.0,74,30.03,10.0,NE,4.6,-,N/A,,Overcast,50,2012-10-14 17:53:00
1:39 PM,80.6,71.6,74,30.04,10.0,ENE,5.8,-,N/A,,Overcast,60,2012-10-14 18:39:00
1:53 PM,81.0,72.0,74,30.01,10.0,ENE,5.8,-,N/A,,Overcast,60,2012-10-14 18:53:00
2:53 PM,84.2,71.6,66,30.00,10.0,Calm,Calm,-,N/A,,Overcast,0,2012-10-14 19:53:00
3:53 PM,84.0,71.1,65,29.97,10.0,Variable,4.6,-,N/A,,Overcast,0,2012-10-14 20:53:00
4:53 PM,84.9,71.1,63,29.97,10.0,East,5.8,-,N/A,,Overcast,90,2012-10-14 21:53:00
5:53 PM,84.0,71.1,65,29.97,10.0,East,5.8,-,N/A,,Overcast,90,2012-10-14 22:53:00
6:53 PM,82.0,71.1,69,29.98,10.0,ESE,5.8,-,N/A,,Overcast,110,2012-10-14 23:53:00
7:53 PM,80.1,71.1,74,29.99,10.0,East,3.5,-,N/A,,Mostly Cloudy,80,2012-10-15 00:53:00
8:53 PM,79.0,71.1,77,30.00,10.0,ENE,4.6,-,N/A,,Overcast,70,2012-10-15 01:53:00
9:53 PM,78.1,71.1,79,30.01,10.0,East,4.6,-,N/A,,Scattered Clouds,80,2012-10-15 02:53:00
10:53 PM,77.0,70.0,79,30.02,10.0,ENE,3.5,-,N/A,,Clear,70,2012-10-15 03:53:00
11:53 PM,77.0,69.8,78,30.05,10.0,ENE,5.8,-,N/A,,Clear,60,2012-10-15 04:53:00